User: anonymous   Login
Location: Unspecified
(0.0000°N, 0.0000°E)
Time: 20:40:16
(UTC+00:00)
Language:

COSMOS 2497 - Orbit

View from above orbital plane
View from above orbital plane
View from above satellite
View from above satellite

Ground track
Ground track

The orbit data is extracted from the following two-line orbital elements,

1 39762U 14028B   17172.71755105 +.00000010 +00000-0 +00000-0 0  9992
2 39762 082.4501 005.2308 0021029 023.7068 336.4974 12.42866673139810
Epoch (UTC): 21 June 2017 17:13:16
Eccentricity: 0.0021029
inclination: 82.4501°
perigee height: 1478 km
apogee height: 1511 km
right ascension of ascending node: 5.2308°
argument of perigee: 23.7068°
revolutions per day: 12.42866673
mean anomaly at epoch: 336.4974°
orbit number at epoch: 13981

The dashed part of the orbit path shows where the satellite is in the earth's shadow,  

DLR